Location: Rimrock Meadows
(47.4808°N, 119.7286°W)
Time: 23:54:34
(UTC-08:00)

Daily predictions for brighter satellites

Satellite Brightness Start Highest point End
(mag) Time Altitude Azimuth Time Altitude Azimuth Time Altitude Azimuth
Cosmos 1674 3.6 17:07:24 10° SSE 17:10:43 29° E 17:14:05 10° NNE
Cosmos 1766 Rocket 3.8 17:09:31 10° S 17:13:51 52° E 17:18:11 10° NNE
COSMOS 2455 4.2 17:08:49 10° WSW 17:14:11 32° NW 17:19:35 10° NNE
COSMOS 2428 3.2 17:13:19 10° S 17:18:38 41° ESE 17:23:58 10° NE
Lacrosse 5 rocket 2.2 17:16:06 10° NW 17:19:21 28° NNE 17:22:43 10° E
COSMO-SKYMED 1 3.7 17:16:19 10° NE 17:19:49 23° E 17:23:19 10° SSE
CZ-4 R/B 1.4 17:16:29 10° S 17:20:22 81° WSW 17:24:18 10° NNW
Cosmos 2228 Rocket 3.3 17:17:04 10° N 17:21:21 46° ENE 17:25:37 10° SSE
Cosmos 1300 4.0 17:19:08 10° NNE 17:22:02 20° ENE 17:24:55 10° ESE
Cosmos 2237 4.4 17:18:19 10° S 17:23:51 54° ESE 17:29:25 10° NE
YAOGAN 1 2.5 17:20:44 10° SSE 17:25:03 81° ENE 17:29:25 10° NNW
Cosmos 2237 Rocket 3.7 17:21:52 10° SE 17:25:13 16° E 17:28:35 10° ENE
MOS 1 4.4 17:23:04 10° SSE 17:28:44 87° WSW 17:34:27 10° NNW
Cosmos 2150 Rocket 4.5 17:23:37 10° NNW 17:28:50 67° WSW 17:33:57 10° S
Thor Agena Rocket 3.7 17:24:24 10° NNE 17:29:39 60° ESE 17:34:47 10° S
Cosmos 1726 3.2 17:26:34 10° NNE 17:29:41 24° ENE 17:32:47 10° SE
Cosmos 1898 Rocket 4.5 17:25:32 10° NNW 17:30:45 55° WSW 17:35:56 10° S
BREEZE-M DEB (TANK) 4.1 17:19:46 10° WNW 17:31:20 59° SW 17:34:57 10° SE
SPOT 3 Rocket 3.6 17:26:40 10° SSE 17:31:49 86° WSW 17:37:02 10° NNW
MONITOR-E 4.4 17:30:09 10° SSE 17:33:14 50° ENE 17:36:20 10° N
Cosmos 1408 Rocket 3.6 17:31:02 10° S 17:35:30 88° E 17:39:58 10° N
USA 116 3.2 17:33:44 10° NNE 17:37:07 89° E 17:40:15 10° SSW
Cosmos 1125 Rocket 3.8 17:33:23 10° NNW 17:38:22 42° ENE 17:43:17 10° SE
ATLAS 3B R/B 4.2 17:32:25 10° W 17:38:36 28° NNW 17:44:33 10° NE
Meteor 2-2 Rocket 4.2 17:33:19 10° N 17:38:57 65° ENE 17:44:33 10° SSE
Cosmos 1814 Rocket 4.0 17:34:41 10° SSW 17:40:01 81° ESE 17:45:25 10° NNE
USA 215 3.3 17:34:58 10° ESE 17:41:32 86° NE 17:48:08 10° NW
Cosmos 990 Rocket 4.3 17:37:11 10° NNW 17:42:27 74° WSW 17:47:40 10° SSE
IDEFIX/ARIANE 42P 3.5 17:40:57 10° S 17:46:02 54° W 17:51:12 10° NNW
Cosmos 2322 4.0 17:40:51 10° SW 17:46:31 70° WNW 17:52:14 10° NNE
Meteor 1-28 Rocket 4.1 17:44:54 11° NE 17:47:53 27° E 17:51:06 10° SSE
Cosmos 332 Rocket 4.1 17:44:38 10° S 17:49:13 46° ESE 17:53:51 10° NNE
NOSS 3-2 (A) 4.5 17:43:50 10° WSW 17:49:46 44° NW 17:56:20 10° NE
NOSS 3-2 (C) 4.3 17:47:01 10° WSW 17:53:01 49° NW 17:59:42 10° NE
SL-16 R/B 3.9 17:49:28 10° WSW 17:54:18 28° NW 17:59:09 10° N
Cosmos 2058 4.0 17:51:48 10° SE 17:55:06 23° E 17:56:34 19° ENE
Cosmos 1844 Rocket 2.9 17:50:09 10° NNW 17:55:51 76° WSW 18:01:28 10° SSE
SJ-6B 3.6 17:52:18 10° SE 17:55:55 31° ENE 17:59:35 10° N
Cosmos 1743 Rocket 3.5 17:52:23 10° S 17:56:50 73° E 18:01:19 10° NNE
Tsikada Rocket 4.2 17:50:50 10° SSW 17:57:12 78° W 18:03:40 10° N
Cosmos 1328 Rocket 3.8 17:55:44 10° NNW 18:00:10 75° W 18:04:36 10° S
Cosmos 841 Rocket 3.5 17:55:10 10° S 18:00:24 69° ESE 18:05:40 10° NNE
Cosmos 2333 4.1 17:55:24 10° SSW 18:00:59 74° ESE 18:06:33 10° NNE
Molniya-1 4.3 18:00:06 10° SSW 18:02:59 57° SE 18:06:08 20° NE
Cosmos 2142 Rocket 4.5 17:58:35 10° N 18:05:02 76° E 18:11:23 10° SSE
Cosmos 1515 Rocket 3.6 18:01:31 10° N 18:06:01 86° W 18:10:28 10° S
SKYMED 2 3.5 18:03:50 10° NNE 18:08:11 70° ESE 18:12:30 10° S
Orbus 7S? 4.5 18:06:34 10° NW 18:09:50 37° NNE 18:12:39 23° E
Cosmos 2360 Rocket 3.3 18:06:23 10° SW 18:11:43 43° NW 18:17:04 10° NNE
Cosmos 1980 4.1 18:06:33 10° S 18:11:49 41° ESE 18:15:06 21° NE
ALOS 3.0 18:08:06 10° SE 18:12:09 30° ENE 18:16:13 10° N
Cosmos 44 4.2 18:10:30 10° S 18:15:06 32° ESE 18:16:36 27° E
Cosmos 2151 3.0 18:11:41 10° S 18:15:46 52° E 18:19:07 15° NNE
CZ-4C R/B 4.2 18:14:41 10° NW 18:19:05 19° N 18:22:30 14° NE
Cosmos 1151 Rocket 2.9 18:15:13 10° N 18:19:31 90° W 18:23:48 10° S
Cosmos 371 Rocket 3.2 18:15:17 10° S 18:20:02 65° ESE 18:23:23 20° NNE
Cosmos 2333 Rocket 2.2 18:16:36 10° S 18:22:06 57° ESE 18:25:43 22° NE
Cosmos 1634 Rocket 4.1 18:16:25 10° NNW 18:22:37 77° W 18:28:45 10° S
Cosmos 1500 Rocket 3.5 18:19:50 10° S 18:24:09 82° W 18:28:33 10° N
Cosmos 1340 Rocket 3.6 18:22:32 10° SSE 18:25:26 32° ESE 18:25:26 32° ESE
CENTAUR R/B 2.7 18:20:22 10° SW 18:26:34 77° NW 18:32:01 18° NE
FENGYUN 3A 3.9 18:22:34 10° SE 18:27:36 44° ENE 18:32:41 10° N
Cosmos 836 Rocket 4.4 18:22:27 10° SSW 18:27:40 76° ESE 18:31:41 18° NNE
Meteor 1-27 4.2 18:24:11 10° N 18:30:01 77° ENE 18:35:51 10° SSE
OTV 4 3.1 18:29:30 10° SW 18:30:48 12° S 18:31:42 11° S
Lacrosse 5 3.0 18:28:04 10° W 18:32:43 35° NNW 18:35:01 24° NNE
SL-19 R/B 4.3 18:28:01 10° SSE 18:33:51 63° ENE 18:39:26 10° NNW
BREEZE M DEB (TANK) 2.2 18:31:54 10° WNW 18:34:31 41° SSW 18:34:34 41° SSW
ATLAS 5 CENTAUR R/B 4.0 18:31:19 10° NNW 18:34:42 16° N 18:35:59 15° NNE
SL-14 R/B 3.1 18:33:19 10° S 18:37:13 88° E 18:39:36 23° N
Cosmos 44 Rocket 3.3 18:33:38 10° SSW 18:38:44 72° SE 18:40:38 38° NE
Cosmos 2219 Rocket 2.2 18:33:33 10° SSW 18:39:12 87° WNW 18:43:10 21° NNE
Cosmos 2278 Rocket 2.3 18:34:13 10° NNW 18:39:54 76° WSW 18:45:34 10° SSE
Meteor 2-10 3.9 18:35:10 10° NNW 18:40:16 90° ESE 18:45:26 10° S
METEOR-M 4.2 18:36:56 10° SSE 18:42:18 82° WSW 18:47:42 10° NNW
Timation 1 Rocket 4.2 18:37:11 10° NNW 18:43:14 69° ENE 18:47:30 20° SE
Resurs 01 Rocket 1.6 18:46:15 53° ESE 18:46:51 58° ENE 18:51:14 10° N
Cosmos 1900 4.4 18:43:59 10° NNW 18:48:51 54° NE 18:49:14 53° ENE
Cosmos 372 Rocket 4.3 18:49:38 10° NNW 18:54:43 66° WSW 18:59:45 10° S
Cosmos 1943 Rocket 4.4 18:53:15 10° NNE 18:53:20 10° NNE 18:53:20 10° NNE
COSMO-SKYMED 1 3.9 18:52:04 10° N 18:56:07 39° WNW 19:00:08 10° SW
NOSS 0 Rocket 3.9 18:50:35 10° SSW 18:56:50 90° WNW 19:00:13 29° NNE
Cosmos 1300 4.4 18:54:23 10° NNW 18:57:52 34° W 19:01:20 10° SSW
Lacrosse 5 rocket 1.2 18:55:04 10° NW 18:58:43 74° WSW 18:58:43 74° WSW
Cosmos 1707 Rocket 3.8 18:56:57 10° N 19:00:21 54° N 19:00:21 54° N
Cosmos 2084 3.5 18:58:46 10° SW 19:02:05 63° SW 19:02:05 63° SW
COSMOS 2428 4.0 18:57:40 10° WSW 19:02:58 38° NW 19:07:25 14° NNE
Lacrosse 4 Rocket 3.6 19:01:09 10° NNW 19:01:56 14° N 19:01:56 14° N
Cosmos 1726 4.3 19:01:48 10° NNW 19:05:01 27° W 19:08:12 10° SSW
Cosmos 2237 Rocket 2.1 19:02:53 10° SSW 19:08:30 83° WNW 19:10:28 43° NNE
Cosmos 783 Rocket 4.4 19:05:54 10° SSW 19:11:13 88° WNW 19:12:24 56° NNE
Cosmos 2369 Rocket 4.0 19:07:26 10° N 19:09:30 18° N 19:09:30 18° N
Cosmos 540 Rocket 3.7 19:07:09 10° SSW 19:12:17 68° WNW 19:14:10 39° N
SL-16 R/B 2.9 19:07:03 10° S 19:10:53 39° SSE 19:10:53 39° SSE
Cosmos 2297 3.7 19:12:09 10° NNW 19:17:52 79° WSW 19:20:00 40° SSE
ATLAS 3B R/B 4.2 19:26:30 10° NW 19:31:49 21° N 19:32:34 21° NNE
Spot 2 Rocket 4.1 19:28:30 10° S 19:33:27 55° W 19:38:26 10° NNW
Nadezhda 4 Rocket 4.0 19:34:00 10° SSW 19:40:15 77° W 19:43:42 29° N
ALOS 3.8 19:45:16 10° SSW 19:49:31 35° W 19:53:49 10° NNW
Cosmos 2333 Rocket 3.8 20:01:52 10° WSW 20:06:44 29° NW 20:07:46 27° NNW
CZ-4C R/B 4.2 20:04:15 10° NNW 20:07:41 24° N 20:07:41 24° N
Lacrosse 5 4.2 20:12:27 10° NW 20:14:14 19° NW 20:14:14 19° NW
CENTAUR R/B 4.1 20:12:47 10° W 20:18:27 29° NNW 20:19:14 29° N
ATLAS 5 CENTAUR R/B 4.4 20:16:06 10° NNW 20:17:33 17° NNW 20:17:33 17° NNW
Resurs 01 Rocket 4.3 20:23:48 17° W 20:23:48 17° W 20:26:34 10° NW
Cosmos 2219 Rocket 4.3 20:19:59 10° W 20:24:00 20° NW 20:24:55 19° NNW
